OpenBCM V2.0.2 (Linux)

Packet Radio Mailbox

IZ3LSV

[San Dona' di P. JN]

 Login: GUEST





  
CX2SA  > KEP      10.05.08 01:31l 77 Lines 3126 Bytes #999 (0) @ WW
BID : ARLK035
Read: GUEST
Subj: ARLK035 Keplerian data
Path: IZ3LSV<IK6IHL<IK1ZNW<IR1UAW<IK2QCA<I4UKI<IK6ZDE<VE2PKT<HG8LXL<CX2SA
Sent: 080509/2211Z @:CX2SA.LAV.URY.SA #:1722 [Minas] FBB7.00e $:ARLK035
From: CX2SA@CX2SA.LAV.URY.SA
To  : KEP@ARL


ZCZC SK35
QST de W1AW  
Keplerian Bulletin 35  ARLK035
From ARRL Headquarters
Newington, CT  May 9, 2008
To all radio amateurs 

SB KEP ARL ARLK035
ARLK035 Keplerian data

Special thanks to AMSAT-NA (AMSAT.ORG) for the following Keplerian
data.

Decode 2-line elsets with the following key:
1 AAAAAU 00  0  0 BBBBB.BBBBBBBB  .CCCCCCCC  00000-0  00000-0 0  DDDZ
2 AAAAA EEE.EEEE FFF.FFFF GGGGGGG HHH.HHHH III.IIII JJ.JJJJJJJJKKKKKZ
KEY: A-CATALOGNUM B-EPOCHTIME C-DECAY D-ELSETNUM E-INCLINATION F-RAAN
G-ECCENTRICITY H-ARGPERIGEE I-MNANOM J-MNMOTION K-ORBITNUM Z-CHECKSUM

AO-07
1 07530U 74089B   08130.50764654 -.00000027  00000-0  10000-3 0  1718
2 07530 101.4682 163.2935 0011850 338.7861 021.2722 12.53573826532131
UO-11
1 14781U 84021B   08129.55754523  .00000044  00000-0  13092-4 0  6637
2 14781 098.1565 162.9932 0008874 194.5895 165.5046 14.79640080297999
AO-16
1 20439U 90005D   08129.79667968  .00000009  00000-0  18603-4 0  3153
2 20439 098.2280 111.8785 0010180 298.4871 061.5280 14.31792677955287
AO-27
1 22825U 93061C   08129.43649835 -.00000100  00000-0 -23076-4 0  9636
2 22825 098.3823 090.9559 0008820 024.4799 335.6807 14.29237580762091
IO-26
1 22826U 93061D   08129.77743068 -.00000018  00000-0  94855-5 0  6680
2 22826 098.3741 092.2111 0009491 019.4050 340.7491 14.29486459762232
PO-28
1 22829U 93061G   08129.92316024 -.00000040  00000-0  68505-6 0  9398
2 22829 098.3620 093.4627 0009845 351.7368 008.3658 14.30188038762510
FO-29
1 24278U 96046B   08129.77859173 -.00000066  00000-0 -28027-4 0  7642
2 24278 098.5889 051.2185 0350370 317.7330 039.7284 13.52936804579067
GO-32
1 25397U 98043D   08130.23072937 -.00000204  00000-0 -71958-4 0  5948
2 25397 098.3654 167.3111 0001623 030.0484 330.0781 14.23141939510672
ISS
1 25544U 98067A   08130.50420330  .00014761  00000-0  96063-4 0  4441
2 25544 051.6405 215.7665 0006659 183.8261 268.3941 15.76184096542427
MO-46
1 26548U 00057D   08129.79241998  .00000022  00000-0  20719-4 0   927
2 26548 064.5574 252.1718 0025359 329.4406 030.5225 14.83257393411970
AO-40
1 26609U 00072B   08129.00140496 -.00000142  00000-0  10000-3 0   539
2 26609 007.4803 084.0624 7911226 078.9755 352.2381 01.25582375 34537
NO-44
1 26931U 01043C   08129.96580068 -.00000256  00000-0 -67502-4 0  8731
2 26931 067.0550 025.6969 0006177 278.0879 081.9495 14.29520569344803
SO-50
1 27607U 02058C   08129.58497908  .00000175  00000-0  48846-4 0  5978
2 27607 064.5578 173.9104 0084504 287.0499 072.1342 14.71353309289143
CO-55
1 27844U 03031E   08128.51489960 +.00000030 +00000-0 +34389-4 0 02990
2 27844 098.7160 137.3467 0008967 230.8691 129.1686 14.20577189251665
AO-51
1 28375U 04025K   08129.59770257  .00000017  00000-0  18102-4 0   948
2 28375 098.0743 156.3899 0083298 273.5653 085.6019 14.40606335202702
VO-52
1 28650U 05017B   08129.69154198  .00000353  00000-0  51475-4 0  9242
2 28650 097.7905 197.3807 0025949 269.2062 090.6193 14.81459973162751

Keplerian bulletins are transmitted twice weekly from W1AW.  The
next scheduled transmission of these data will be Tuesday, May 13,
2008, at 2230z on Baudot and AMTOR.
NNNN


Read previous mail | Read next mail


 05.05.2026 09:36:22lGo back Go up